This is the latest recevied weather packets stored in our database for station/object KC5DP. If no packets are shown the sender has not sent any weather packets the latest 10 day(s).
| Time | Temp. | Humidity | Pressure | Rain* | Wind** | Luminosity | Snow |
|---|---|---|---|---|---|---|---|
| 1777739073 | 19.44° C | 69% | 1016.7 hPa | 0 mm | - | 864 W/m² | - |
| 1777738765 | 20° C | 67% | 1016.6 hPa | 0 mm | - | 336 W/m² | - |
| 1777738461 | 20° C | 65% | 1016.8 hPa | 0 mm | - | 174 W/m² | - |
| 1777738159 | 19.44° C | 66% | 1016.8 hPa | 0 mm | - | 740 W/m² | - |
| 1777737857 | 20° C | 70% | 1016.7 hPa | 0 mm | - | 752 W/m² | - |
| 1777737556 | 20.56° C | 68% | 1016.6 hPa | 0 mm | - | 692 W/m² | - |
| 1777737254 | 20.56° C | 68% | 1016.6 hPa | 0 mm | - | 692 W/m² | - |
| 1777736949 | 20° C | 68% | 1016.6 hPa | 0 mm | - | 646 W/m² | - |
| 1777736043 | 18.89° C | 69% | 1016.4 hPa | 0 mm | - | 612 W/m² | - |
| 1777735740 | 19.44° C | 71% | 1016.3 hPa | 0 mm | - | 589 W/m² | - |
| 1777735437 | 18.89° C | 74% | 1016.3 hPa | 0 mm | - | 586 W/m² | - |
| 1777735135 | 18.89° C | 75% | 1016.2 hPa | 0 mm | - | 573 W/m² | - |
| 1777734831 | 19.44° C | 74% | 1016.3 hPa | 0 mm | - | 563 W/m² | - |
| 1777734529 | 18.89° C | 76% | 1016.1 hPa | 0 mm | - | 551 W/m² | - |
| 1777734225 | 18.33° C | 79% | 1016.2 hPa | 0 mm | - | 539 W/m² | - |
| 1777733921 | 17.78° C | 79% | 1016.1 hPa | 0 mm | - | 524 W/m² | - |
| 1777733618 | 17.78° C | 75% | 1016.1 hPa | 0 mm | - | 422 W/m² | - |
| 1777733315 | 17.78° C | 78% | 1016.1 hPa | 0 mm | - | 512 W/m² | - |
| 1777733012 | 17.22° C | 78% | 1016 hPa | 0 mm | - | 485 W/m² | - |
| 1777732708 | 17.22° C | 81% | 1016.1 hPa | 0 mm | - | 110 W/m² | - |
| 1777732405 | 17.22° C | 82% | 1015.9 hPa | 0 mm | - | 471 W/m² | - |
| 1777732103 | 17.22° C | 82% | 1015.8 hPa | 0 mm | - | 439 W/m² | - |
| 1777731799 | 17.22° C | 81% | 1015.9 hPa | 0 mm | - | 420 W/m² | - |
| 1777731496 | 16.67° C | 82% | 1015.7 hPa | 0 mm | - | 406 W/m² | - |
| 1777731195 | 16.67° C | 85% | 1015.6 hPa | 0 mm | - | 391 W/m² | - |
* Rain latest hour (hover to see other rain measurements)
** Current wind speed in m/s (hover to see current wind gust speed)